This is the latest recevied weather packets stored in our database for station/object W2EH. If no packets are shown the sender has not sent any weather packets the latest 10 day(s).
| Time | Temp. | Humidity | Pressure | Rain* | Wind** | Luminosity | Snow |
|---|---|---|---|---|---|---|---|
| 1777428304 | 27.78° C | 77% | 1009.2 hPa | 0 mm | - | 0 W/m² | - |
| 1777428005 | 27.78° C | 77% | 1009.2 hPa | 0 mm | - | 0 W/m² | - |
| 1777427701 | 27.78° C | 77% | 1009.1 hPa | 0 mm | - | 0 W/m² | - |
| 1777427399 | 27.78° C | 77% | 1009.2 hPa | 0 mm | - | 0 W/m² | - |
| 1777427094 | 27.78° C | 77% | 1009.3 hPa | 0 mm | - | 0 W/m² | - |
| 1777426792 | 27.78° C | 78% | 1009 hPa | 0 mm | - | 0 W/m² | - |
| 1777426489 | 27.22° C | 80% | 1009 hPa | 0 mm | - | 0 W/m² | - |
| 1777426185 | 26.67° C | 85% | 1008.9 hPa | 0 mm | - | 0 W/m² | - |
| 1777425880 | 26.67° C | 87% | 1008.8 hPa | 0 mm | - | 0 W/m² | - |
| 1777425575 | 27.22° C | 88% | 1008.5 hPa | 0 mm | - | 0 W/m² | - |
| 1777425271 | 27.22° C | 87% | 1008.4 hPa | 0 mm | - | 0 W/m² | - |
| 1777424968 | 27.22° C | 87% | 1008.2 hPa | 0 mm | - | 1 W/m² | - |
| 1777424664 | 27.22° C | 87% | 1008.3 hPa | 0 mm | - | 1 W/m² | - |
| 1777424359 | 27.22° C | 86% | 1008.2 hPa | 0 mm | - | 3 W/m² | - |
| 1777424055 | 27.78° C | 86% | 1008 hPa | 0 mm | - | 4 W/m² | - |
| 1777423752 | 27.78° C | 85% | 1008.1 hPa | 0 mm | - | 8 W/m² | - |
| 1777423448 | 27.78° C | 85% | 1008.1 hPa | 0 mm | - | 11 W/m² | - |
| 1777423143 | 27.78° C | 84% | 1008.2 hPa | 0 mm | - | 11 W/m² | - |
| 1777422838 | 28.33° C | 83% | 1008.2 hPa | 0 mm | - | 13 W/m² | - |
| 1777422534 | 28.33° C | 82% | 1008.2 hPa | 0 mm | - | 15 W/m² | - |
| 1777422229 | 28.33° C | 82% | 1008.3 hPa | 0 mm | - | 17 W/m² | - |
| 1777421929 | 28.89° C | 80% | 1008.2 hPa | 0 mm | - | 17 W/m² | - |
| 1777421624 | 28.89° C | 80% | 1008.2 hPa | 0 mm | - | 21 W/m² | - |
| 1777421319 | 28.89° C | 79% | 1007.9 hPa | 0 mm | - | 27 W/m² | - |
| 1777421016 | 28.89° C | 78% | 1007.8 hPa | 0 mm | - | 29 W/m² | - |
* Rain latest hour (hover to see other rain measurements)
** Current wind speed in m/s (hover to see current wind gust speed)